Weather in Katunskoye

Russia / Altai Krai     52°24′41″N   85°07′05″E
temp.,
°C
wind,
m/s
gust,
m/s
humid.,
%
clouds,
%
prec.,
mm/h
press.,
hPa
HPBL,
m
25 october, mon
mon2501:00+7sw246497 0.0 102785
04:00+8s2365100 0.0 102666
07:00+8ssw2363100 0.0 102453
10:00+9sw2459100 0.0 1024153
13:00+12sw4646100 0.0 1022704
16:00+14wsw4840100 0.0 10201124
19:00+9wsw2352100 0.0 102124
22:00+7sw225965 0.0 102216
26 october, tue
tue2601:00+6sw226253 0.0 102112
04:00+6sse116441 0.0 101910
07:00+5ese3467100 0.0 101868
10:00+7ese3762100 0.0 1015166
13:00+12sse2345100 0.0 1012275
16:00+14sw394267 0.0 1010716
19:00+10sw2246100 0.0 101012
22:00+9sw4114453 0.0 1012243
27 october, wed
wed2701:00+11wsw8154197 0.0 1015591
04:00+7wnw5978100 0.0 1020680
07:00+4w3693100 0.4 1024561
10:00+5wnw3466100 0.3 1026868
13:00+5w2355100 0.3 10261125
16:00+6w3452100 0.0 10261238
19:00+3wnw2262100 0.0 102749
22:00+1nw226176 0.0 102817
28 october, thu
thu2801:000w226047 0.0 102910
04:00−1w115791 0.0 102910
07:00−1ssw0057100 0.0 102910
10:00+1sse1152100 0.0 1030106
13:00+3sse0146100 0.0 1029430
16:00+4sse124976 0.0 1028568
19:00+2ese22678 0.0 102811
22:00+1ese227861 0.0 102724
29 october, fri
fri2901:00+1se228687 0.0 102618
04:00+1se3387100 0.0 102545
07:00+1se2288100 0.0 102425
10:00+3sse2477100 0.0 1024106
13:00+8sw41054100 0.0 1023672
16:00+10wsw71654100 0.0 10221337
19:00+8wsw71560100 0.0 1024880
22:00+8wsw71653100 0.0 1024962